Find Starlink 37088

NORAD ID: 68322 Int'l Des: 2026-059 Owner: SPXS Country: US Constellation: starlink operational
LEOCIRCULAR

Live Position

Loading 3D Globe...

About Starlink 37088

Description loading...

Upcoming Passes

Passes for default location (London). Set your location on the main map for personalized predictions.

Altitude History

Loading altitude history...

Two-Line Element Set

1 68322U 26059B 26127.13560111 .00047976 00000-0 86502-3 0 9996
2 68322 53.1598 74.6763 0000986 87.1846 272.9276 15.49320505 7156
Epoch: May 7, 2026 • Age: 10 hours

Current Status

Altitude 422.9 km
Velocity 7.66 km/s
Sub-Earth Point 45.85°N, 65.28°E
Launch Date Mar 22, 2026
Age 0.1 years
Type internet

Technical Details

Classification Payload
Mass 575.00 kg
Dry Mass 530.00 kg
Total Mass 575.00 kg
Length 0.30 m
Diameter 4.10 m
Span 29.00 m
Shape Box + pan
Manufacturer SPXS
Bus Type Starlink V2MO
Phase Status In Orbit
Owner/State SPXS/US

Most Searched